This demonstration page uses our WeatherBlox Daily Observations layout. Learn more.

Left ArrowRight Arrow

Hourly Observations for December 9, 2020

Temp ( °F °C ) Dew Point ( °F °C ) Humidity (%) Winds ( mph kmh ) Pressure ( in mb ) Visibility ( mi km ) Precip ( " mm )
12:56 am 00:56 Clear 42 5.6 16 -8.9 35 35 W 6 9 30.02 1017 10 16 0.00 0.00
1:56 am 01:56 Clear 40 4.4 16 -8.9 38 38 WNW 7 11 30.02 1017 10 16 0.00 0.00
2:56 am 02:56 Clear 39 3.9 16 -8.9 39 39 WNW 8 13 30.03 1017 10 16 0.00 0.00
3:56 am 03:56 Clear 44 6.7 15 -9.4 31 31 W 9 15 30.04 1017 10 16 0.00 0.00
4:56 am 04:56 Clear 42 5.6 17 -8.3 36 36 W 9 15 30.04 1017 10 16 0.00 0.00
5:56 am 05:56 Clear 43 6.1 17 -8.3 35 35 W 8 13 30.05 1018 10 16 0.00 0.00
6:56 am 06:56 Clear 37 2.8 18 -7.8 46 46 WNW 8 13 30.07 1018 10 16 0.00 0.00
7:56 am 07:56 Sunny 38 3.3 18 -7.8 44 44 WNW 8 13 30.07 1018 10 16 0.00 0.00
8:56 am 08:56 Sunny 42 5.6 20 -6.7 41 41 W 7 11 30.08 1019 10 16 0.00 0.00
9:56 am 09:56 Sunny 49 9.4 22 -5.6 35 35 WNW 8 13 30.08 1019 10 16 0.00 0.00
10:56 am 10:56 Sunny 55 12.8 24 -4.4 30 30 NW 7 11 30.08 1019 10 16 0.00 0.00
11:56 am 11:56 Sunny 63 17.2 25 -3.9 24 24 NNW 5 7 30.04 1017 10 16 0.00 0.00
12:56 pm 12:56 Sunny 65 18.3 26 -3.3 23 23 Calm 30.01 1016 10 16 0.00 0.00
1:56 pm 13:56 Sunny 67 19.4 27 -2.8 22 22 Calm 29.99 1016 10 16 0.00 0.00
2:56 pm 14:56 Sunny 68 20 29 -1.7 23 23 SSW 5 7 29.97 1015 10 16 0.00 0.00
3:56 pm 15:56 Sunny 66 18.9 30 -1.1 26 26 SSW 7 11 29.96 1015 10 16 0.00 0.00
4:56 pm 16:56 Sunny 60 15.6 30 -1.1 32 32 S 3 6 29.96 1015 10 16 0.00 0.00
5:56 pm 17:56 Clear 54 12.2 28 -2.2 37 37 SE 5 7 29.97 1015 10 16 0.00 0.00
6:56 pm 18:56 Clear 48 8.9 28 -2.2 46 46 SE 9 15 29.97 1015 10 16 0.00 0.00
7:56 pm 19:56 Clear 45 7.2 28 -2.2 52 52 S 8 13 29.97 1015 10 16 0.00 0.00
8:56 pm 20:56 Clear 45 7.2 27 -2.8 49 49 S 7 11 29.96 1015 10 16 0.00 0.00
9:56 pm 21:56 Clear 42 5.6 27 -2.8 55 55 SSW 9 15 29.94 1014 10 16 0.00 0.00
10:56 pm 22:56 Clear 42 5.6 25 -3.9 51 51 SSW 7 11 29.92 1013 10 16 0.00 0.00
11:56 pm 23:56 Clear 43 6.1 27 -2.8 53 53 SSW 10 17 29.90 1013 10 16 0.00 0.00

Powered by AerisWeather